TimeEET,TemperatureF,Dew PointF,Humidity,Sea Level PressureIn,VisibilityMPH,Wind Direction,Wind SpeedMPH,Gust SpeedMPH,PrecipitationIn,Events,Conditions,WindDirDegrees,DateUTC
12:20 AM,71.6,69.8,94,29.89,5.0,South,9.2,-,N/A,,Mostly Cloudy,190,2012-11-05 22:20:00
12:50 AM,71.6,69.8,94,29.89,5.0,SW,10.4,-,N/A,,Mostly Cloudy,220,2012-11-05 22:50:00
1:20 AM,71.6,69.8,94,29.89,5.0,SSW,9.2,-,N/A,,Mostly Cloudy,210,2012-11-05 23:20:00
1:50 AM,71.6,69.8,94,29.89,5.0,WSW,10.4,-,N/A,,Mostly Cloudy,240,2012-11-05 23:50:00
2:00 AM,72,70,91,29.90,5,WSW,10.4,,,,Mist,240,2012-11-06 00:00:00
2:20 AM,71.6,66.2,83,29.89,5.0,WSW,13.8,-,N/A,,Mostly Cloudy,240,2012-11-06 00:20:00
2:50 AM,71.6,69.8,94,29.89,5.0,SW,10.4,-,N/A,,Mostly Cloudy,230,2012-11-06 00:50:00
3:20 AM,71.6,69.8,94,29.89,5.0,West,6.9,-,N/A,,Mostly Cloudy,260,2012-11-06 01:20:00
3:50 AM,69.8,68.0,94,29.86,5.0,West,4.6,-,N/A,,Scattered Clouds,260,2012-11-06 01:50:00
4:20 AM,69.8,68.0,94,29.86,5.0,West,4.6,-,N/A,,Scattered Clouds,260,2012-11-06 02:20:00
4:50 AM,69.8,68.0,94,29.86,5.0,Calm,Calm,-,N/A,,Mostly Cloudy,0,2012-11-06 02:50:00
5:20 AM,69.8,68.0,94,29.86,5.0,West,4.6,-,N/A,,Mostly Cloudy,260,2012-11-06 03:20:00
5:50 AM,69.8,68.0,94,29.86,5.0,West,4.6,-,N/A,,Scattered Clouds,260,2012-11-06 03:50:00
6:20 AM,69.8,68.0,94,29.86,5.0,West,4.6,-,N/A,,Scattered Clouds,270,2012-11-06 04:20:00
6:50 AM,68.0,66.2,94,29.89,6.2,West,6.9,-,N/A,,Scattered Clouds,280,2012-11-06 04:50:00
7:20 AM,68.0,66.2,94,29.89,6.2,West,6.9,-,N/A,,Scattered Clouds,270,2012-11-06 05:20:00
7:50 AM,68.0,66.2,94,29.89,6.2,Calm,Calm,-,N/A,,Scattered Clouds,0,2012-11-06 05:50:00
8:00 AM,67,66,96,29.91,12,Calm,Calm,,,,Partly Cloudy,,2012-11-06 06:00:00
8:20 AM,68.0,66.2,94,29.89,6.2,NW,6.9,-,N/A,,Scattered Clouds,310,2012-11-06 06:20:00
8:50 AM,69.8,66.2,88,29.89,6.2,NW,6.9,-,N/A,,Scattered Clouds,310,2012-11-06 06:50:00
9:20 AM,71.6,66.2,83,29.89,6.2,North,6.9,-,N/A,,Scattered Clouds,360,2012-11-06 07:20:00
9:50 AM,73.4,66.2,78,29.92,6.2,NW,8.1,-,N/A,,Scattered Clouds,310,2012-11-06 07:50:00
10:20 AM,73.4,66.2,78,29.92,6.2,NW,5.8,-,N/A,,Scattered Clouds,320,2012-11-06 08:20:00
10:50 AM,73.4,66.2,78,29.95,6.2,NW,10.4,-,N/A,,Mostly Cloudy,320,2012-11-06 08:50:00
11:20 AM,73.4,66.2,78,29.95,6.2,NW,6.9,-,N/A,,Mostly Cloudy,320,2012-11-06 09:20:00
11:50 AM,73.4,66.2,78,29.95,6.2,NNW,8.1,-,N/A,,Mostly Cloudy,330,2012-11-06 09:50:00
12:20 PM,73.4,66.2,78,29.95,6.2,NW,11.5,-,N/A,,Mostly Cloudy,310,2012-11-06 10:20:00
12:50 PM,75.2,64.4,69,29.95,6.2,NW,13.8,-,N/A,,Scattered Clouds,310,2012-11-06 10:50:00
1:20 PM,75.2,64.4,69,29.95,6.2,NW,9.2,-,N/A,,Scattered Clouds,310,2012-11-06 11:20:00
1:50 PM,73.4,64.4,73,29.95,6.2,NW,9.2,-,N/A,,Mostly Cloudy,320,2012-11-06 11:50:00
2:00 PM,73,64,66,29.96,12,NW,9.2,,,,Scattered Clouds,320,2012-11-06 12:00:00
2:20 PM,73.4,64.4,73,29.95,6.2,NW,9.2,-,N/A,,Scattered Clouds,320,2012-11-06 12:20:00
2:50 PM,73.4,64.4,73,29.95,6.2,NW,5.8,-,N/A,,Scattered Clouds,310,2012-11-06 12:50:00
3:20 PM,73.4,64.4,73,29.95,6.2,WNW,5.8,-,N/A,,Scattered Clouds,300,2012-11-06 13:20:00
3:50 PM,75.2,62.6,65,29.95,6.2,NW,6.9,-,N/A,,Scattered Clouds,310,2012-11-06 13:50:00
4:20 PM,73.4,62.6,69,29.95,6.2,NW,6.9,-,N/A,,Scattered Clouds,310,2012-11-06 14:20:00
4:50 PM,69.8,62.6,78,29.98,6.2,WNW,4.6,-,N/A,,Mostly Cloudy,290,2012-11-06 14:50:00
5:20 PM,68.0,62.6,83,29.98,6.2,Calm,Calm,-,N/A,,Mostly Cloudy,0,2012-11-06 15:20:00
5:50 PM,66.2,60.8,83,29.98,6.2,Calm,Calm,-,N/A,,Mostly Cloudy,0,2012-11-06 15:50:00
6:20 PM,64.4,60.8,88,29.98,6.2,Calm,Calm,-,N/A,,Mostly Cloudy,0,2012-11-06 16:20:00
6:50 PM,64.4,59.0,83,30.01,6.2,Calm,Calm,-,N/A,,Mostly Cloudy,0,2012-11-06 16:50:00
7:20 PM,62.6,59.0,88,30.01,6.2,Calm,Calm,-,N/A,,Mostly Cloudy,0,2012-11-06 17:20:00
7:50 PM,60.8,57.2,88,30.04,6.2,Calm,Calm,-,N/A,,Mostly Cloudy,0,2012-11-06 17:50:00
8:00 PM,62,58,81,30.04,6,Calm,Calm,,,,Scattered Clouds,,2012-11-06 18:00:00
8:20 PM,59.0,57.2,94,30.04,6.2,Calm,Calm,-,N/A,,Mostly Cloudy,0,2012-11-06 18:20:00
8:50 PM,59.0,57.2,94,30.04,6.2,Calm,Calm,-,N/A,,Scattered Clouds,0,2012-11-06 18:50:00
9:20 PM,59.0,57.2,94,30.04,6.2,Calm,Calm,-,N/A,,Scattered Clouds,0,2012-11-06 19:20:00
9:50 PM,59.0,57.2,94,30.04,6.2,Calm,Calm,-,N/A,,Scattered Clouds,0,2012-11-06 19:50:00
10:20 PM,59.0,57.2,94,30.04,6.2,Calm,Calm,-,N/A,,Scattered Clouds,0,2012-11-06 20:20:00
10:50 PM,57.2,57.2,100,30.04,6.2,Calm,Calm,-,N/A,,Scattered Clouds,0,2012-11-06 20:50:00
11:20 PM,57.2,57.2,100,30.04,6.2,Calm,Calm,-,N/A,,Scattered Clouds,0,2012-11-06 21:20:00
11:50 PM,57.2,55.4,94,30.04,6.2,Calm,Calm,-,N/A,,Scattered Clouds,0,2012-11-06 21:50:00